Caribe Navigator — V2PW6 — position and weather

sailwx.info

Track history (hours):
 
Tides and Currents Weather Stations Pressure Air Temp Water Temp Dewpoint Dewpoint Depression Visibility Wind Speed Wind Dir Waves Ship Positions

Caribe Navigator

Last reported at 2014-Oct-17 00:06 UTC. Time now 2014-Oct-20 21:13 UTC.
Position N 25°35' W 080°02'.

Length 100 m; draft 4.9 m.

Type: Cargo ship. MMSI: 305289000.

Date/timePositionNaut miles runAvg speedWind from/ knotsBaromVisibWave heightAir tempDewpointWater temp
2014-Oct-17 00:06N 25°35' W 080°02'611.1
2014-Oct-16 23:33N 25°41' W 080°02'1111.4
2014-Oct-16 22:33N 25°52' W 080°03'1212.1
2014-Oct-16 21:33N 26°04' W 080°05'3 2.2
2014-Oct-16 20:24N 26°05' W 080°07'0 0.0
2014-Oct-16 19:27N 26°05' W 080°07'0 0.0
2014-Oct-16 18:27N 26°05' W 080°07'0 0.0
2014-Oct-16 17:27N 26°05' W 080°07'0 0.0
2014-Oct-16 16:27N 26°05' W 080°07'0 0.0
2014-Oct-16 15:27N 26°05' W 080°07'0 0.0
2014-Oct-16 14:30N 26°05' W 080°07'0 0.0
2014-Oct-16 13:30N 26°05' W 080°07'0 0.0
2014-Oct-16 12:30N 26°05' W 080°07'0 0.0
2014-Oct-16 11:30N 26°05' W 080°07'0 0.0
2014-Oct-16 10:27N 26°05' W 080°07'0 0.0
2014-Oct-16 09:33N 26°05' W 080°07'0 0.0
2014-Oct-16 08:33N 26°05' W 080°07'0 0.0
2014-Oct-16 07:33N 26°05' W 080°07'0 0.0
2014-Oct-16 06:30N 26°05' W 080°07'0 0.0
2014-Oct-16 05:33N 26°05' W 080°07'0 0.0
2014-Oct-16 04:30N 26°05' W 080°07'0 0.0
2014-Oct-16 03:33N 26°05' W 080°07'0 0.0
2014-Oct-16 02:33N 26°05' W 080°07'0 0.0
2014-Oct-16 01:33N 26°05' W 080°07'0 0.0
2014-Oct-16 00:33N 26°05' W 080°07'0 0.0
2014-Oct-15 23:33N 26°05' W 080°07'0 0.0
2014-Oct-15 22:33N 26°05' W 080°07'0 0.0
2014-Oct-15 21:24N 26°05' W 080°07'0 0.0
2014-Oct-15 20:24N 26°05' W 080°07'0 0.0
2014-Oct-15 19:24N 26°05' W 080°07'1 1.5
2014-Oct-15 18:33N 26°06' W 080°06'1514.8
2014-Oct-15 17:34N 25°52' W 079°60'  
2014-Oct-09 23:31N 25°36' W 080°02'1111.0
2014-Oct-09 22:33N 25°47' W 080°03'1212.1
2014-Oct-09 21:33N 25°59' W 080°04'7 6.1
2014-Oct-09 20:22N 26°05' W 080°07'0 0.0
2014-Oct-09 19:22N 26°05' W 080°07'0 0.0
2014-Oct-09 18:25N 26°05' W 080°07'0 0.0
2014-Oct-09 17:22N 26°05' W 080°07'0 0.0
2014-Oct-09 16:25N 26°05' W 080°07'0 0.0
2014-Oct-09 15:25N 26°05' W 080°07'0 0.0
2014-Oct-09 14:25N 26°05' W 080°07'0 0.0
2014-Oct-09 13:28N 26°05' W 080°07'0 0.0
2014-Oct-09 12:28N 26°05' W 080°07'0 0.0
2014-Oct-09 11:28N 26°05' W 080°07'0 0.0
2014-Oct-09 10:28N 26°05' W 080°07'0 0.0
2014-Oct-09 09:28N 26°05' W 080°07'0 0.0
2014-Oct-09 08:31N 26°05' W 080°07'0 0.0
2014-Oct-09 07:31N 26°05' W 080°07'0 0.0
2014-Oct-09 06:31N 26°05' W 080°07'0 0.0
2014-Oct-09 05:31N 26°05' W 080°07'0 0.0
2014-Oct-09 04:31N 26°05' W 080°07'0 0.0
2014-Oct-09 03:34N 26°05' W 080°07'0 0.0
2014-Oct-09 02:34N 26°05' W 080°07'0 0.0
2014-Oct-09 01:33N 26°05' W 080°07'0 0.0
2014-Oct-09 00:33N 26°05' W 080°07'0 0.0
2014-Oct-08 23:33N 26°05' W 080°07'0 0.0
2014-Oct-08 22:33N 26°05' W 080°07'0 0.0
2014-Oct-08 21:33N 26°05' W 080°07'0 0.0
2014-Oct-08 20:21N 26°05' W 080°07'0 0.0
2014-Oct-08 19:33N 26°05' W 080°07'1110.5
2014-Oct-08 18:33N 25°57' W 080°01'1615.9
2014-Oct-08 17:33N 25°41' W 079°60'  
Track history (hours):
 
Tides and Currents Weather Stations Pressure Air Temp Water Temp Dewpoint Dewpoint Depression Visibility Wind Speed Wind Dir Waves Ship Positions

Caribe Navigator

Last reported at 2014-Oct-17 00:06 UTC. Time now 2014-Oct-20 21:13 UTC.
Position N 25°35' W 080°02'.

Length 100 m; draft 4.9 m.

Type: Cargo ship. MMSI: 305289000.

Date/timePositionNaut miles runAvg speedWind from/ knotsBaromVisibWave heightAir tempDewpointWater temp
2014-Oct-17 00:06N 25°35' W 080°02'611.1
2014-Oct-16 23:33N 25°41' W 080°02'1111.4
2014-Oct-16 22:33N 25°52' W 080°03'1212.1
2014-Oct-16 21:33N 26°04' W 080°05'3 2.2
2014-Oct-16 20:24N 26°05' W 080°07'0 0.0
2014-Oct-16 19:27N 26°05' W 080°07'0 0.0
2014-Oct-16 18:27N 26°05' W 080°07'0 0.0
2014-Oct-16 17:27N 26°05' W 080°07'0 0.0
2014-Oct-16 16:27N 26°05' W 080°07'0 0.0
2014-Oct-16 15:27N 26°05' W 080°07'0 0.0
2014-Oct-16 14:30N 26°05' W 080°07'0 0.0
2014-Oct-16 13:30N 26°05' W 080°07'0 0.0
2014-Oct-16 12:30N 26°05' W 080°07'0 0.0
2014-Oct-16 11:30N 26°05' W 080°07'0 0.0
2014-Oct-16 10:27N 26°05' W 080°07'0 0.0
2014-Oct-16 09:33N 26°05' W 080°07'0 0.0
2014-Oct-16 08:33N 26°05' W 080°07'0 0.0
2014-Oct-16 07:33N 26°05' W 080°07'0 0.0
2014-Oct-16 06:30N 26°05' W 080°07'0 0.0
2014-Oct-16 05:33N 26°05' W 080°07'0 0.0
2014-Oct-16 04:30N 26°05' W 080°07'0 0.0
2014-Oct-16 03:33N 26°05' W 080°07'0 0.0
2014-Oct-16 02:33N 26°05' W 080°07'0 0.0
2014-Oct-16 01:33N 26°05' W 080°07'0 0.0
2014-Oct-16 00:33N 26°05' W 080°07'0 0.0
2014-Oct-15 23:33N 26°05' W 080°07'0 0.0
2014-Oct-15 22:33N 26°05' W 080°07'0 0.0
2014-Oct-15 21:24N 26°05' W 080°07'0 0.0
2014-Oct-15 20:24N 26°05' W 080°07'0 0.0
2014-Oct-15 19:24N 26°05' W 080°07'1 1.5
2014-Oct-15 18:33N 26°06' W 080°06'1514.8
2014-Oct-15 17:34N 25°52' W 079°60'  
2014-Oct-09 23:31N 25°36' W 080°02'1111.0
2014-Oct-09 22:33N 25°47' W 080°03'1212.1
2014-Oct-09 21:33N 25°59' W 080°04'7 6.1
2014-Oct-09 20:22N 26°05' W 080°07'0 0.0
2014-Oct-09 19:22N 26°05' W 080°07'0 0.0
2014-Oct-09 18:25N 26°05' W 080°07'0 0.0
2014-Oct-09 17:22N 26°05' W 080°07'0 0.0
2014-Oct-09 16:25N 26°05' W 080°07'0 0.0
2014-Oct-09 15:25N 26°05' W 080°07'0 0.0
2014-Oct-09 14:25N 26°05' W 080°07'0 0.0
2014-Oct-09 13:28N 26°05' W 080°07'0 0.0
2014-Oct-09 12:28N 26°05' W 080°07'0 0.0
2014-Oct-09 11:28N 26°05' W 080°07'0 0.0
2014-Oct-09 10:28N 26°05' W 080°07'0 0.0
2014-Oct-09 09:28N 26°05' W 080°07'0 0.0
2014-Oct-09 08:31N 26°05' W 080°07'0 0.0
2014-Oct-09 07:31N 26°05' W 080°07'0 0.0
2014-Oct-09 06:31N 26°05' W 080°07'0 0.0
2014-Oct-09 05:31N 26°05' W 080°07'0 0.0
2014-Oct-09 04:31N 26°05' W 080°07'0 0.0
2014-Oct-09 03:34N 26°05' W 080°07'0 0.0
2014-Oct-09 02:34N 26°05' W 080°07'0 0.0
2014-Oct-09 01:33N 26°05' W 080°07'0 0.0
2014-Oct-09 00:33N 26°05' W 080°07'0 0.0
2014-Oct-08 23:33N 26°05' W 080°07'0 0.0
2014-Oct-08 22:33N 26°05' W 080°07'0 0.0
2014-Oct-08 21:33N 26°05' W 080°07'0 0.0
2014-Oct-08 20:21N 26°05' W 080°07'0 0.0
2014-Oct-08 19:33N 26°05' W 080°07'1110.5
2014-Oct-08 18:33N 25°57' W 080°01'1615.9
2014-Oct-08 17:33N 25°41' W 079°60'  

Dump ship's entire track history